When you browse on this site, cookies collect data to enhance your experience and personalize the content and advertising you see.
Visit our Privacy Policy to learn more. By continuing to use the site, you agree to this use of cookies and data.
  • In France
  • List of Countries
  • For 7 days
  • Water Temperature
  • Weather Map
  • Weather Widgets
  • user-avatar
    Login

    Hourly Weather Potsdam

    Today, 22 September, Sunday

    Time Temperature Precipitation Wind Pressure Humidity
    00:00 +13°C° 0 mm 2 mps 760 mmHg 73%
    01:00 +13°C° 0 mm 1 mps 759 mmHg 77%
    02:00 +13°C° 0 mm 2 mps 759 mmHg 78%
    03:00 +12°C° 0 mm 2 mps 759 mmHg 79%
    04:00 +12°C° 0 mm 2 mps 758 mmHg 80%
    05:00 +12°C° 0 mm 2 mps 758 mmHg 78%
    06:00 +12°C° 0 mm 2 mps 758 mmHg 76%
    07:00 +13°C° 0 mm 2 mps 758 mmHg 73%
    08:00 +14°C° 0 mm 3 mps 758 mmHg 64%
    09:00 +17°C° 0 mm 3 mps 757 mmHg 56%
    10:00 +19°C° 0 mm 3 mps 757 mmHg 47%
    11:00 +20°C° 0 mm 3 mps 757 mmHg 43%
    12:00 +22°C° 0 mm 3 mps 756 mmHg 40%
    13:00 +25°C° 0 mm 3 mps 756 mmHg 38%
    14:00 +25°C° 0 mm 3 mps 755 mmHg 39%
    15:00 +25°C° 0 mm 3 mps 755 mmHg 39%
    16:00 +25°C° 0 mm 3 mps 754 mmHg 40%
    17:00 +22°C° 0 mm 3 mps 755 mmHg 47%
    18:00 +20°C° 0 mm 3 mps 755 mmHg 53%
    19:00 +18°C° 0 mm 2 mps 755 mmHg 59%
    20:00 +17°C° 0 mm 2 mps 755 mmHg 60%
    21:00 +16°C° 0 mm 2 mps 755 mmHg 61%
    22:00 +15°C° 0 mm 2 mps 755 mmHg 63%
    23:00 +15°C° 0 mm 2 mps 755 mmHg 63%

    Tomorrow, 23 September, Monday

    Time Temperature Precipitation Wind Pressure Humidity
    00:00 +14°C° 0 mm 2 mps 755 mmHg 64%
    01:00 +14°C° 0 mm 2 mps 755 mmHg 64%
    02:00 +12°C° 0 mm 3 mps 755 mmHg 65%
    03:00 +12°C° 0 mm 3 mps 755 mmHg 65%
    04:00 +11°C° 0 mm 3 mps 755 mmHg 65%
    05:00 +11°C° 0 mm 3 mps 755 mmHg 65%
    06:00 +11°C° 0 mm 3 mps 755 mmHg 64%
    07:00 +11°C° 0 mm 3 mps 755 mmHg 63%
    08:00 +14°C° 0 mm 3 mps 755 mmHg 58%
    09:00 +17°C° 0 mm 3 mps 755 mmHg 52%
    10:00 +19°C° 0 mm 3 mps 756 mmHg 47%
    11:00 +20°C° 0 mm 4 mps 756 mmHg 44%
    12:00 +21°C° 0 mm 4 mps 756 mmHg 41%
    13:00 +23°C° 0 mm 4 mps 756 mmHg 38%
    14:00 +24°C° 0 mm 3 mps 756 mmHg 40%
    15:00 +24°C° 0 mm 3 mps 756 mmHg 42%
    16:00 +23°C° 0 mm 2 mps 756 mmHg 44%
    17:00 +21°C° 0 mm 2 mps 756 mmHg 50%
    18:00 +20°C° 0 mm 1 mps 756 mmHg 56%
    19:00 +18°C° 0 mm 1 mps 756 mmHg 62%
    20:00 +16°C° 0 mm 1 mps 756 mmHg 65%
    21:00 +16°C° 0 mm 1 mps 757 mmHg 67%
    22:00 +15°C° 0 mm 1 mps 757 mmHg 70%
    23:00 +15°C° 0 mm 1 mps 757 mmHg 75%

    Day after tomorrow, 24 September, Tuesday

    Time Temperature Precipitation Wind Pressure Humidity
    00:00 +14°C° 0 mm 1 mps 757 mmHg 79%
    01:00 +14°C° 0 mm 1 mps 757 mmHg 84%
    02:00 +14°C° 0 mm 2 mps 757 mmHg 87%
    03:00 +13°C° 0 mm 2 mps 757 mmHg 91%
    04:00 +13°C° 0 mm 2 mps 756 mmHg 94%
    05:00 +13°C° 0 mm 1 mps 756 mmHg 94%
    06:00 +14°C° 0 mm 1 mps 756 mmHg 94%
    07:00 +14°C° 0 mm 1 mps 756 mmHg 94%
    08:00 +15°C° 0.2 mm 1 mps 756 mmHg 92%
    09:00 +15°C° 0.2 mm 1 mps 756 mmHg 91%
    10:00 +15°C° 0.2 mm 1 mps 756 mmHg 90%
    11:00 +16°C° 0.3 mm 1 mps 756 mmHg 90%
    12:00 +16°C° 0.3 mm 1 mps 755 mmHg 90%
    13:00 +16°C° 0.3 mm 1 mps 755 mmHg 90%
    14:00 +16°C° 0 mm 1 mps 755 mmHg 88%
    15:00 +16°C° 0 mm 1 mps 754 mmHg 85%
    16:00 +18°C° 0 mm 1 mps 754 mmHg 83%
    17:00 +16°C° 0 mm 1 mps 754 mmHg 86%
    18:00 +15°C° 0 mm 2 mps 753 mmHg 89%
    19:00 +15°C° 0 mm 2 mps 753 mmHg 92%
    20:00 +14°C° 0 mm 2 mps 753 mmHg 93%
    21:00 +14°C° 0 mm 2 mps 753 mmHg 93%
    22:00 +14°C° 0 mm 2 mps 753 mmHg 93%
    23:00 +14°C° 0 mm 2 mps 752 mmHg 93%

    25 September, Wednesday

    Time Temperature Precipitation Wind Pressure Humidity
    00:00 +14°C° 0 mm 2 mps 752 mmHg 92%
    01:00 +14°C° 0 mm 2 mps 751 mmHg 92%
    02:00 +14°C° 0 mm 2 mps 751 mmHg 91%
    03:00 +14°C° 0 mm 2 mps 751 mmHg 89%
    04:00 +14°C° 0 mm 2 mps 750 mmHg 88%
    05:00 +14°C° 0.2 mm 2 mps 750 mmHg 90%
    06:00 +14°C° 0.2 mm 2 mps 750 mmHg 91%
    07:00 +14°C° 0.2 mm 2 mps 750 mmHg 93%
    08:00 +14°C° 0.2 mm 2 mps 750 mmHg 92%
    09:00 +15°C° 0.2 mm 2 mps 750 mmHg 92%
    10:00 +14°C° 0.2 mm 3 mps 750 mmHg 91%
    11:00 +16°C° 0.2 mm 3 mps 750 mmHg 88%
    12:00 +16°C° 0.2 mm 3 mps 750 mmHg 84%
    13:00 +17°C° 0.2 mm 3 mps 750 mmHg 80%
    14:00 +17°C° 0.2 mm 3 mps 750 mmHg 78%
    15:00 +18°C° 0.2 mm 3 mps 750 mmHg 75%
    16:00 +18°C° 0.2 mm 2 mps 750 mmHg 72%
    17:00 +17°C° 0.2 mm 2 mps 751 mmHg 77%
    18:00 +16°C° 0.2 mm 2 mps 751 mmHg 81%
    19:00 +15°C° 0.2 mm 2 mps 751 mmHg 86%
    20:00 +14°C° 0 mm 2 mps 752 mmHg 87%
    21:00 +14°C° 0 mm 2 mps 752 mmHg 88%
    22:00 +14°C° 0 mm 2 mps 752 mmHg 89%
    23:00 +13°C° 0 mm 2 mps 752 mmHg 90%

    26 September, Thursday

    Time Temperature Precipitation Wind Pressure Humidity
    00:00 +13°C° 0 mm 2 mps 752 mmHg 91%
    01:00 +12°C° 0 mm 2 mps 752 mmHg 92%
    02:00 +12°C° 0 mm 2 mps 753 mmHg 92%
    03:00 +12°C° 0 mm 2 mps 753 mmHg 93%
    04:00 +10°C° 0 mm 2 mps 753 mmHg 94%
    05:00 +12°C° 0 mm 2 mps 753 mmHg 94%
    06:00 +12°C° 0 mm 2 mps 753 mmHg 93%
    07:00 +12°C° 0 mm 2 mps 753 mmHg 93%
    08:00 +14°C° 0 mm 2 mps 754 mmHg 90%
    09:00 +15°C° 0 mm 2 mps 754 mmHg 87%
    10:00 +16°C° 0 mm 2 mps 754 mmHg 83%
    11:00 +17°C° 0 mm 2 mps 754 mmHg 81%
    12:00 +17°C° 0 mm 2 mps 754 mmHg 79%
    13:00 +18°C° 0 mm 2 mps 754 mmHg 77%
    14:00 +18°C° 0.1 mm 2 mps 754 mmHg 74%
    15:00 +19°C° 0.1 mm 2 mps 754 mmHg 71%
    16:00 +21°C° 0.1 mm 1 mps 754 mmHg 68%
    17:00 +18°C° 0 mm 2 mps 755 mmHg 74%
    18:00 +17°C° 0 mm 2 mps 755 mmHg 79%
    19:00 +16°C° 0 mm 2 mps 755 mmHg 85%
    20:00 +16°C° 0 mm 2 mps 755 mmHg 87%
    21:00 +16°C° 0 mm 2 mps 755 mmHg 88%
    22:00 +14°C° 0 mm 3 mps 756 mmHg 90%
    23:00 +16°C° 0.1 mm 2 mps 756 mmHg 91%

    27 September, Friday

    Time Temperature Precipitation Wind Pressure Humidity
    00:00 +16°C° 0.1 mm 2 mps 756 mmHg 91%
    01:00 +16°C° 0.1 mm 2 mps 756 mmHg 92%
    02:00 +16°C° 0 mm 2 mps 755 mmHg 92%
    03:00 +14°C° 0 mm 3 mps 755 mmHg 91%
    04:00 +14°C° 0 mm 3 mps 755 mmHg 91%
    05:00 +14°C° 0 mm 3 mps 755 mmHg 91%
    06:00 +14°C° 0 mm 3 mps 755 mmHg 90%
    07:00 +14°C° 0 mm 3 mps 755 mmHg 90%
    08:00 +15°C° 0 mm 4 mps 755 mmHg 84%
    09:00 +18°C° 0 mm 4 mps 755 mmHg 78%
    10:00 +19°C° 0 mm 4 mps 755 mmHg 72%
    11:00 +20°C° 0.1 mm 5 mps 754 mmHg 67%
    12:00 +21°C° 0.1 mm 5 mps 754 mmHg 62%
    13:00 +22°C° 0.1 mm 6 mps 753 mmHg 57%
    14:00 +21°C° 0.1 mm 5 mps 753 mmHg 59%
    15:00 +21°C° 0.1 mm 5 mps 753 mmHg 61%
    16:00 +21°C° 0.1 mm 4 mps 753 mmHg 63%
    17:00 +19°C° 0.2 mm 4 mps 753 mmHg 69%
    18:00 +18°C° 0.2 mm 3 mps 753 mmHg 74%
    19:00 +17°C° 0.2 mm 3 mps 753 mmHg 80%
    20:00 +16°C° 0.1 mm 3 mps 753 mmHg 82%
    21:00 +16°C° 0.1 mm 3 mps 753 mmHg 83%
    22:00 +16°C° 0.1 mm 3 mps 753 mmHg 85%
    23:00 +14°C° 0 mm 3 mps 753 mmHg 86%
    Show more